{"data":{"norad_id":58051,"intl_designator":"2023-158A","name":"STARLINK-30568","alt_names":[],"object_type":"PAYLOAD","status":"ACTIVE","operator":null,"country":"US","launch_date":"2023-10-13","launch_site_code":"AFETR","launch_vehicle":null,"mission":null,"orbit_class":"UNKNOWN","rcs_meters":null,"size_class":null,"mass_kg":null,"dimensions":null,"purposes":["comms"],"wikipedia_slug":null,"has_3d_model":false,"image_url":null,"decayed_at":null,"tle_current":{"epoch":"2026-09-20T08:02:06.101376Z","epoch_age_seconds":151972,"freshness":"FRESH","line1":"1 58051U 23158A   26263.33479284 -.00000316  00000+0 -19623-5 0  9994","line2":"2 58051  43.0053   8.2054 0001294 250.0323 110.0389 15.27579725163323","mean_motion":15.27579725,"eccentricity":0.0001294,"inclination_deg":43.0053,"raan_deg":8.2054,"arg_perigee_deg":250.0323,"mean_anomaly_deg":110.0389,"bstar":-1.9623e-6,"rev_number":16332,"period_min":94.266765683866,"perigee_km":482.16208190133,"apogee_km":483.93775707609,"semimajor_km":6861.1869194887,"source":"CELESTRAK","updated_at":"2026-09-21T09:00:33.776911Z"}}}